GSAT0208 (GALILEO 11)

Last updated on Wed Nov 20 2024 00:02:29 GMT+0000 (Coordinated Universal Time)

1 41175U 15079B 24323.23357997 .00000034 00000+0 00000+0 0 9994 2 41175 55.4975 117.0785 0001453 9.7658 350.2088 1.70474262 55539
UTC large
Height (km)
Speed (km/s)
/
Latitude / Longitude
Inclination (degrees)
Orbital Period (minutes)
Azimuth
Elevation
Range (km)
Doppler Factor

Next 0 passes for location: London (51.5072 / 0.1276)

Sorry there are no passes over London.